H1 CPF 2 NER 2021 12 20 9 354 01 glonass141 H2 1908801 9141 44850 2021 12 20 0 0 0 2021 12 23 23 45 0 900 1 1 0 0 0 1 H9 10 0 59568 0.00000 0 14191269.810 18356489.939 10635698.109 10 0 59568 900.00000 0 13113263.882 17334483.084 13383348.155 10 0 59568 1800.00000 0 11696370.972 16214559.504 15871565.932 10 0 59568 2700.00000 0 9953164.185 15057424.479 18052181.598 10 0 59568 3600.00000 0 7908975.564 13921832.694 19882991.459 10 0 59568 4500.00000 0 5601092.329 12862077.666 21328565.092 10 0 59568 5400.00000 0 3077459.144 11925687.972 22360922.210 10 0 59568 6300.00000 0 394939.305 11151425.828 22960067.277 10 0 59568 7200.00000 0 -2382794.225 10567670.871 23114372.344 10 0 59568 8100.00000 0 -5187652.009 10191255.958 22820801.385 10 0 59568 9000.00000 0 -7949708.112 10026803.119 22084971.990 10 0 59568 9900.00000 0 -10599861.501 10066587.234 20921053.085 10 0 59568 10800.00000 0 -13072470.244 10290933.221 19351500.070 10 0 59568 11700.00000 0 -15307850.596 10669130.561 17406631.564 10 0 59568 12600.00000 0 -17254538.223 11160827.458 15124054.772 10 0 59568 13500.00000 0 -18871218.235 11717846.917 12547949.294 10 0 59568 14400.00000 0 -20128244.007 12286349.152 9728221.901 10 0 59568 15300.00000 0 -21008681.294 12809249.888 6719547.561 10 0 59568 16200.00000 0 -21508833.786 13228792.931 3580314.418 10 0 59568 17100.00000 0 -21638227.652 13489168.308 371492.650 10 0 59568 18000.00000 0 -21419055.266 13539064.872 -2844550.882 10 0 59568 18900.00000 0 -20885101.174 13334048.457 -6005268.911 10 0 59568 19800.00000 0 -20080195.365 12838663.674 -9049156.754 10 0 59568 20700.00000 0 -19056259.065 12028168.828 -11916957.268 10 0 59568 21600.00000 0 -17871025.830 10889828.798 -14552823.399 10 0 59568 22500.00000 0 -16585534.551 9423709.391 -16905414.709 10 0 59568 23400.00000 0 -15261500.853 7642937.879 -18928905.535 10 0 59568 24300.00000 0 -13958678.481 5573417.075 -20583884.471 10 0 59568 25200.00000 0 -12732322.577 3253003.510 -21838127.128 10 0 59568 26100.00000 0 -11630862.340 730183.127 -22667226.794 10 0 59568 27000.00000 0 -10693881.422 -1937700.945 -23055070.655 10 0 59568 27900.00000 0 -9950491.102 -4686595.044 -22994152.432 10 0 59568 28800.00000 0 -9418164.550 -7448166.693 -22485715.523 10 0 59568 29700.00000 0 -9102080.660 -10152420.237 -21539724.230 10 0 59568 30600.00000 0 -8995004.304 -12730387.544 -20174663.937 10 0 59568 31500.00000 0 -9077707.082 -15116781.718 -18417174.523 10 0 59568 32400.00000 0 -9319909.673 -17252503.591 -16301524.513 10 0 59568 33300.00000 0 -9681704.911 -19086896.903 -13868936.549 10 0 59568 34200.00000 0 -10115400.337 -20579658.710 -11166777.764 10 0 59568 35100.00000 0 -10567701.325 -21702326.166 -8247631.236 10 0 59568 36000.00000 0 -10982141.577 -22439278.706 -5168267.035 10 0 59568 36900.00000 0 -11301657.428 -22788215.012 -1988533.474 10 0 59568 37800.00000 0 -11471196.506 -22760086.391 1229809.404 10 0 59568 38700.00000 0 -11440250.035 -22378490.970 4424291.016 10 0 59568 39600.00000 0 -11165201.546 -21678555.705 7532942.303 10 0 59568 40500.00000 0 -10611392.738 -20705354.638 10495495.044 10 0 59568 41400.00000 0 -9754819.327 -19511930.975 13254545.228 10 0 59568 42300.00000 0 -8583385.514 -18157006.845 15756658.162 10 0 59568 43200.00000 0 -7097664.272 -16702477.295 17953394.598 10 0 59568 44100.00000 0 -5311131.275 -15210793.515 19802238.836 10 0 59568 45000.00000 0 -3249862.285 -13742344.543 21267411.830 10 0 59568 45900.00000 0 -951705.845 -12352946.237 22320554.713 10 0 59568 46800.00000 0 1535035.324 -11091541.512 22941270.583 10 0 59568 47700.00000 0 4153360.657 -9998206.861 23117514.943 10 0 59568 48600.00000 0 6839694.437 -9102547.330 22845827.920 10 0 59568 49500.00000 0 9526288.554 -8422546.038 22131403.987 10 0 59568 50400.00000 0 12143807.308 -7963915.651 20987997.732 10 0 59568 51300.00000 0 14623988.813 -7719978.560 19437666.917 10 0 59568 52200.00000 0 16902274.020 -7672080.704 17510356.869 10 0 59568 53100.00000 0 18920295.250 -7790522.005 15243333.092 10 0 59568 54000.00000 0 20628121.543 -8035964.811 12680471.779 10 0 59568 54900.00000 0 21986167.683 -8361261.697 9871420.582 10 0 59568 55800.00000 0 22966687.122 -8713626.204 6870644.851 10 0 59568 56700.00000 0 23554786.090 -9037055.293 3736376.873 10 0 59568 57600.00000 0 23748915.842 -9274901.257 529487.980 10 0 59568 58500.00000 0 23560821.708 -9372484.017 -2687694.670 10 0 59568 59400.00000 0 23014950.479 -9279632.544 -5852603.414 10 0 59568 60300.00000 0 22147340.552 -8953046.652 -8903653.333 10 0 59568 61200.00000 0 21004041.327 -8358377.753 -11781448.689 10 0 59568 62100.00000 0 19639128.413 -7471938.797 -14429948.155 10 0 59568 63000.00000 0 18112398.523 -6281969.227 -16797565.177 10 0 59568 63900.00000 0 16486841.644 -4789399.732 -18838181.014 10 0 59568 64800.00000 0 14825997.517 -3008082.724 -20512050.054 10 0 59568 65700.00000 0 13191308.262 -964477.254 -21786579.220 10 0 59568 66600.00000 0 11639579.095 1303199.686 -22636965.932 10 0 59568 67500.00000 0 10220654.176 3746320.988 -23046682.154 10 0 59568 68400.00000 0 8975405.329 6307640.705 -23007795.205 10 0 59568 69300.00000 0 7934117.894 8923454.386 -22521119.263 10 0 59568 70200.00000 0 7115340.922 11526038.553 -21596195.001 10 0 59568 71100.00000 0 6525249.107 14046267.752 -20251098.031 10 0 59568 72000.00000 0 6157542.153 16416300.016 -18512080.299 10 0 59568 72900.00000 0 5993884.409 18572218.907 -16413051.777 10 0 59568 73800.00000 0 6004864.765 20456522.131 -13994912.877 10 0 59568 74700.00000 0 6151434.865 22020353.108 -11304751.060 10 0 59568 75600.00000 0 6386763.467 23225382.905 -8394917.653 10 0 59568 76500.00000 0 6658427.293 24045264.617 -5322003.344 10 0 59568 77400.00000 0 6910844.637 24466600.309 -2145732.814 10 0 59568 78300.00000 0 7087847.902 24489381.297 1072199.483 10 0 59568 79200.00000 0 7135285.579 24126884.610 4269329.346 10 0 59568 80100.00000 0 7003543.211 23405031.421 7383634.904 10 0 59568 81000.00000 0 6649876.600 22361235.668 10354737.080 10 0 59568 81900.00000 0 6040458.633 21042792.327 13125065.239 10 0 59568 82800.00000 0 5152053.473 19504873.788 15640965.635 10 0 59568 83700.00000 0 3973247.608 17808218.827 17853731.843 10 0 59568 84600.00000 0 2505185.885 16016610.989 19720538.077 10 0 59568 85500.00000 0 761781.365 14194251.581 21205258.248 10 0 59569 0.00000 0 -1230610.202 12403136.501 22279156.050 10 0 59569 900.00000 0 -3434039.788 10700544.427 22921434.246 10 0 59569 1800.00000 0 -5800301.412 9136742.402 23119632.097 10 0 59569 2700.00000 0 -8272704.896 7752999.977 22869865.839 10 0 59569 3600.00000 0 -10788210.480 6579995.927 22176906.297 10 0 59569 4500.00000 0 -13279839.385 5636682.024 21054092.663 10 0 59569 5400.00000 0 -15679261.850 4929650.648 19523083.472 10 0 59569 6300.00000 0 -17919456.726 4453032.210 17613448.663 10 0 59569 7200.00000 0 -19937333.269 4188926.556 15362109.489 10 0 59569 8100.00000 0 -21676206.960 4108350.375 12812635.793 10 0 59569 9000.00000 0 -23088026.612 4172661.092 10014412.896 10 0 59569 9900.00000 0 -24135259.747 4335397.728 7021693.143 10 0 59569 10800.00000 0 -24792357.058 4544461.399 3892549.539 10 0 59569 11700.00000 0 -25046733.916 4744543.444 687751.183 10 0 59569 12600.00000 0 -24899226.860 4879698.369 -2530417.741 10 0 59569 13500.00000 0 -24364004.993 4895952.101 -5699372.283 10 0 59569 14400.00000 0 -23467939.187 4743834.191 -8757450.189 10 0 59569 15300.00000 0 -22249454.998 4380725.411 -11645119.796 10 0 59569 16200.00000 0 -20756917.228 3772919.810 -14306147.911 10 0 59569 17100.00000 0 -19046614.029 2897312.187 -16688703.936 10 0 59569 18000.00000 0 -17180425.571 1742637.898 -18746377.752 10 0 59569 18900.00000 0 -15223275.722 310210.850 -20439090.800 10 0 59569 19800.00000 0 -13240474.241 -1385873.067 -21733882.092 10 0 59569 20700.00000 0 -11295061.642 -3319077.080 -22605553.453 10 0 59569 21600.00000 0 -9445268.441 -5451296.030 -23037161.410 10 0 59569 22500.00000 0 -7742195.425 -7734224.621 -23020346.186 10 0 59569 23400.00000 0 -6227812.069 -10111164.692 -22555491.640 10 0 59569 24300.00000 0 -4933356.424 -12519196.356 -21651713.337 10 0 59569 25200.00000 0 -3878202.690 -14891622.480 -20326675.331 10 0 59569 26100.00000 0 -3069242.771 -17160584.425 -18606239.601 10 0 59569 27000.00000 0 -2500806.311 -19259739.815 -16523955.338 10 0 59569 27900.00000 0 -2155120.851 -21126890.576 -14120398.376 10 0 59569 28800.00000 0 -2003291.022 -22706451.422 -11442374.069 10 0 59569 29700.00000 0 -2006753.709 -23951655.912 -8541999.559 10 0 59569 30600.00000 0 -2119146.124 -24826408.201 -5475683.722 10 0 59569 31500.00000 0 -2288506.416 -25306703.563 -2303025.239 10 0 59569 32400.00000 0 -2459712.529 -25381559.073 914349.332 10 0 59569 33300.00000 0 -2577055.210 -25053416.427 4113984.422 10 0 59569 34200.00000 0 -2586835.668 -24338001.141 7233807.543 10 0 59569 35100.00000 0 -2439877.675 -23263645.175 10213330.912 10 0 59569 36000.00000 0 -2093847.763 -21870102.394 12994819.353 10 0 59569 36900.00000 0 -1515285.629 -20206907.363 15524402.058 10 0 59569 37800.00000 0 -681259.233 -18331346.689 17753107.279 10 0 59569 38700.00000 0 419425.076 -16306127.923 19637800.787 10 0 59569 39600.00000 0 1785508.307 -14196843.190 21142010.862 10 0 59569 40500.00000 0 3403090.779 -12069332.737 22236625.019 10 0 59569 41400.00000 0 5245978.874 -9987057.320 22900446.078 10 0 59569 42300.00000 0 7276553.071 -8008587.671 23120597.720 10 0 59569 43200.00000 0 9447122.466 -6185314.181 22892772.381 10 0 59569 44100.00000 0 11701710.977 -4559470.699 22221316.986 10 0 59569 45000.00000 0 13978202.624 -3162553.523 21119154.766 10 0 59569 45900.00000 0 16210758.447 -2014200.321 19607544.160 10 0 59569 46800.00000 0 18332406.195 -1121574.961 17715678.560 10 0 59569 47700.00000 0 20277696.328 -479283.486 15480133.510 10 0 59569 48600.00000 0 21985314.729 -69824.549 12944170.759 10 0 59569 49500.00000 0 23400543.707 135444.607 10156911.249 10 0 59569 50400.00000 0 24477468.538 174866.966 7172391.972 10 0 59569 51300.00000 0 25180836.878 94629.936 4048524.011 10 0 59569 52200.00000 0 25487492.398 -53426.894 845971.349 10 0 59569 53100.00000 0 25387321.449 -214247.655 -2373027.857 10 0 59569 54000.00000 0 24883671.860 -332136.289 -5545874.485 10 0 59569 54900.00000 0 23993225.133 -353362.975 -8610832.035 10 0 59569 55800.00000 0 22745326.413 -228689.420 -11508235.846 10 0 59569 56700.00000 0 21180799.657 84295.321 -14181663.540 10 0 59569 57600.00000 0 19350297.377 619128.978 -16579042.863 10 0 59569 58500.00000 0 17312254.153 1398808.339 -18653674.366 10 0 59569 59400.00000 0 15130530.015 2434571.863 -20365148.267 10 0 59569 60300.00000 0 12871842.817 3725185.604 -21680137.066 10 0 59569 61200.00000 0 10603097.681 5256763.924 -22573048.094 10 0 59569 62100.00000 0 8388725.710 7003133.794 -23026523.223 10 0 59569 63000.00000 0 6288143.473 8926728.326 -23031776.056 10 0 59569 63900.00000 0 4353439.576 10979972.704 -22588760.255 10 0 59569 64800.00000 0 2627384.638 13107104.897 -21706166.050 10 0 59569 65700.00000 0 1141847.130 15246355.174 -20401245.330 10 0 59569 66600.00000 0 -83319.647 17332393.182 -18699469.113 10 0 59569 67500.00000 0 -1040874.354 19298940.234 -16634024.437 10 0 59569 68400.00000 0 -1736244.837 21081437.370 -14245160.799 10 0 59569 69300.00000 0 -2187045.270 22619657.447 -11579399.353 10 0 59569 70200.00000 0 -2422075.505 23860151.910 -8688620.623 10 0 59569 71100.00000 0 -2479846.737 24758429.914 -5629048.972 10 0 59569 72000.00000 0 -2406697.443 25280778.748 -2460154.135 10 0 59569 72900.00000 0 -2254580.740 25405649.772 756508.329 10 0 59569 73800.00000 0 -2078617.970 25124552.411 3958494.677 10 0 59569 74700.00000 0 -1934522.861 24442419.529 7083685.001 10 0 59569 75600.00000 0 -1876005.804 23377429.742 10071485.933 10 0 59569 76500.00000 0 -1952268.244 21960294.948 12864000.735 10 0 59569 77400.00000 0 -2205693.038 20233043.645 15407144.307 10 0 59569 78300.00000 0 -2669828.077 18247351.422 17651682.113 10 0 59569 79200.00000 0 -3367747.964 16062488.530 19554173.749 10 0 59569 80100.00000 0 -4310862.506 13742970.031 21077803.813 10 0 59569 81000.00000 0 -5498222.147 11356005.899 22193085.188 10 0 59569 81900.00000 0 -6916349.807 8968856.239 22878422.199 10 0 59569 82800.00000 0 -8539606.863 6646200.499 23120523.671 10 0 59569 83700.00000 0 -10331078.998 4447628.567 22914658.618 10 0 59569 84600.00000 0 -12243946.411 2425356.499 22264749.941 10 0 59569 85500.00000 0 -14223282.750 622260.456 21183304.243 10 0 59570 0.00000 0 -16208209.403 -929690.584 19691178.785 10 0 59570 900.00000 0 -18134318.097 -2210539.936 17817188.351 10 0 59570 1800.00000 0 -19936259.593 -3212938.709 15597560.587 10 0 59570 2700.00000 0 -21550395.183 -3942210.113 13075246.367 10 0 59570 3600.00000 0 -22917398.342 -4415877.904 10299099.105 10 0 59570 4500.00000 0 -23984698.951 -4662679.624 7322937.024 10 0 59570 5400.00000 0 -24708667.349 -4721105.924 4204505.700 10 0 59570 6300.00000 0 -25056445.887 -4637527.441 1004360.371 10 0 59570 7200.00000 0 -25007350.004 -4463988.391 -2215310.430 10 0 59570 8100.00000 0 -24553778.631 -4255760.444 -5391896.912 10 0 59570 9000.00000 0 -23701594.258 -4068761.021 -8463591.657 10 0 59570 9900.00000 0 -22469955.345 -3956946.186 -11370600.135 10 0 59570 10800.00000 0 -20890606.961 -3969789.763 -14056313.639 10 0 59570 11700.00000 0 -19006658.619 -4149956.779 -16468420.787 10 0 59570 12600.00000 0 -16870900.108 -4531271.194 -18559934.924 10 0 59570 13500.00000 0 -14543725.763 -5137065.399 -20290116.681 10 0 59570 14400.00000 0 -12090754.199 -5978982.679 -21625273.132 10 0 59570 15300.00000 0 -9580243.428 -7056284.459 -22539417.602 10 0 59570 16200.00000 0 -7080409.700 -8355692.676 -23014777.185 10 0 59570 17100.00000 0 -4656762.309 -9851774.843 -23042138.171 10 0 59570 18000.00000 0 -2369565.743 -11507856.204 -22621022.809 10 0 59570 18900.00000 0 -271534.874 -13277421.147 -21759694.342 10 0 59570 19800.00000 0 1594141.188 -15105945.288 -20474990.485 10 0 59570 20700.00000 0 3195364.863 -16933081.341 -18791989.011 10 0 59570 21600.00000 0 4512221.413 -18695107.074 -16743512.312 10 0 59570 22500.00000 0 5537551.713 -20327532.527 -14369480.930 10 0 59570 23400.00000 0 6276984.309 -21767756.894 -11716129.098 10 0 59570 24300.00000 0 6748427.480 -22957663.513 -8835097.969 10 0 59570 25200.00000 0 6981044.745 -23846043.965 -5782424.634 10 0 59570 26100.00000 0 7013758.935 -24390749.599 -2617447.166 10 0 59570 27000.00000 0 6893349.775 -24560480.351 598352.517 10 0 59570 27900.00000 0 6672226.881 -24336136.158 3802545.041 10 0 59570 28800.00000 0 6405973.436 -23711674.725 6932965.501 10 0 59570 29700.00000 0 6150765.234 -22694440.283 9928917.209 10 0 59570 30600.00000 0 5960774.643 -21304950.135 12732343.962 10 0 59570 31500.00000 0 5885669.237 -19576148.522 15288948.260 10 0 59570 32400.00000 0 5968310.541 -17552159.365 17549234.427 10 0 59570 33300.00000 0 6242749.603 -15286590.081 19469457.250 10 0 59570 34200.00000 0 6732603.399 -12840457.087 21012458.717 10 0 59570 35100.00000 0 7449880.109 -10279818.793 22148377.817 10 0 59570 36000.00000 0 8394302.507 -7673213.625 22855220.775 10 0 59570 36900.00000 0 9553158.112 -5089008.374 23119281.621 10 0 59570 37800.00000 0 10901683.000 -2592765.504 22935405.690 10 0 59570 38700.00000 0 12403964.268 -244737.096 22307091.304 10 0 59570 39600.00000 0 14014324.717 1902412.006 21246427.613 10 0 59570 40500.00000 0 15679133.499 3805558.792 19773869.346 10 0 59570 41400.00000 0 17338968.691 5432674.386 17917851.937 10 0 59570 42300.00000 0 18931042.975 6763910.269 15714253.406 10 0 59570 43200.00000 0 20391792.296 7792173.851 13205712.053 10 0 59570 44100.00000 0 21659520.096 8523169.633 10440811.837 10 0 59570 45000.00000 0 22676986.761 8974904.351 7473150.066 10 0 59570 45900.00000 0 23393835.630 9176676.866 4360304.447 10 0 59570 46800.00000 0 23768753.080 9167595.260 1162718.917 10 0 59570 47700.00000 0 23771270.901 8994683.674 -2057470.312 10 0 59570 48600.00000 0 23383133.768 8710659.002 -5237645.540 10 0 59570 49500.00000 0 22599172.715 8371471.936 -8315931.167 10 0 59570 50400.00000 0 21427646.275 8033717.052 -11232405.424 10 0 59570 51300.00000 0 19890033.433 7752022.580 -13930275.712 10 0 59570 52200.00000 0 18020285.794 7576531.529 -16356993.721 10 0 59570 53100.00000 0 15863569.469 7550582.057 -18465287.521 10 0 59570 54000.00000 0 13474548.796 7708686.555 -20214089.825 10 0 59570 54900.00000 0 10915283.458 8074896.161 -21569343.703 10 0 59570 55800.00000 0 8252826.994 8661620.915 -22504669.663 10 0 59570 56700.00000 0 5556627.144 9468956.299 -23001880.984 10 0 59570 57600.00000 0 2895836.656 10484545.331 -23051337.342 10 0 59570 58500.00000 0 336646.905 11683982.493 -22652129.990 10 0 59570 59400.00000 0 -2060244.662 13031742.852 -21812095.249 10 0 59570 60300.00000 0 -4241928.054 14482597.357 -20547656.350 10 0 59570 61200.00000 0 -6165240.204 15983454.796 -18883497.109 10 0 59570 62100.00000 0 -7798309.712 17475552.742 -16852074.154 10 0 59570 63000.00000 0 -9121623.727 18896905.223 -14492977.559 10 0 59570 63900.00000 0 -10128573.959 20184903.837 -11852152.775 10 0 59570 64800.00000 0 -10825460.948 21278962.712 -8980999.412 10 0 59570 65700.00000 0 -11230958.460 22123095.847 -5935364.865 10 0 59570 66600.00000 0 -11375062.589 22668318.285 -2774452.915 10 0 59570 67500.00000 0 -11297571.833 22874770.121 440330.952 10 0 59570 68400.00000 0 -11046164.012 22713474.169 3646574.622 10 0 59570 69300.00000 0 -10674152.651 22167653.644 6782071.137 10 0 59570 70200.00000 0 -10238018.662 21233554.889 9786023.444 10 0 59570 71100.00000 0 -9794822.274 19920740.969 12600218.780 10 0 59570 72000.00000 0 -9399604.749 18251844.249 15170150.057 10 0 59570 72900.00000 0 -9102889.442 16261788.495 17446063.135 10 0 59570 73800.00000 0 -8948387.222 13996513.015 19383910.488 10 0 59570 74700.00000 0 -8971002.319 11511251.870 20946193.748 10 0 59570 75600.00000 0 -9195221.980 8868439.189 22102679.993 10 0 59570 76500.00000 0 -9633957.121 6135326.755 22830979.009 10 0 59570 77400.00000 0 -10287882.417 3381411.680 23116971.311 10 0 59570 78300.00000 0 -11145303.667 675779.365 22955079.410 10 0 59570 79200.00000 0 -12182558.486 -1915529.638 22348377.426 10 0 59570 80100.00000 0 -13364934.458 -4332021.270 21308536.919 10 0 59570 81000.00000 0 -14648067.533 -6521015.858 19855609.547 10 0 59570 81900.00000 0 -15979763.560 -8439589.501 18017649.897 10 0 59570 82800.00000 0 -17302168.135 -10056109.173 15830184.711 10 0 59570 83700.00000 0 -18554195.197 -11351298.440 13335537.457 10 0 59570 84600.00000 0 -19674113.621 -12318789.763 10582019.957 10 0 59570 85500.00000 0 -20602183.853 -12965140.393 7623005.565 10 0 59571 0.00000 0 -21283233.965 -13309311.231 4515901.114 10 0 59571 900.00000 0 -21669066.692 -13381630.577 1321035.206 10 0 59571 1800.00000 0 -21720594.429 -13222285.912 -1899511.560 10 0 59571 2700.00000 0 -21409612.183 -12879408.008 -5083117.167 10 0 59571 3600.00000 0 -20720131.218 -12406828.001 -8167841.402 10 0 59571 4500.00000 0 -19649215.881 -11861603.011 -11093638.720 10 0 59571 5400.00000 0 -18207286.558 -11301415.659 -13803535.941 10 0 59571 6300.00000 0 -16417874.373 -10781958.496 -16244750.876 10 0 59571 7200.00000 0 -14316836.619 -10354415.072 -18369729.041 10 0 59571 8100.00000 0 -11951064.800 -10063145.337 -20137077.498 10 0 59571 9000.00000 0 -9376738.656 -9943674.310 -21512377.055 10 0 59571 9900.00000 0 -6657198.942 -10021069.924 -22468856.521 10 0 59571 10800.00000 0 -3860527.606 -10308779.335 -22987915.848 10 0 59571 11700.00000 0 -1056936.343 -10807973.294 -23059487.943 10 0 59571 12600.00000 0 1683927.506 -11507426.591 -22682232.331 10 0 59571 13500.00000 0 4295645.538 -12383939.657 -21863557.164 10 0 59571 14400.00000 0 6717552.595 -13403283.521 -20619469.517 10 0 59571 15300.00000 0 8897016.014 -14521628.026 -18974257.212 10 0 59571 16200.00000 0 10791375.613 -15687392.850 -16960008.790 10 0 59571 17100.00000 0 12369464.590 -16843442.894 -14615981.278 10 0 59571 18000.00000 0 13612649.146 -17929535.133 -11987828.553 10 0 59571 18900.00000 0 14515345.083 -18884913.377 -9126705.712 10 0 59571 19800.00000 0 15084991.664 -19650941.226 -6088267.328 10 0 59571 20700.00000 0 15341485.785 -20173661.943 -2931579.683 10 0 59571 21600.00000 0 15316102.352 -20406177.204 282031.395 10 0 59571 22500.00000 0 15049948.164 -20310744.425 3490174.223 10 0 59571 23400.00000 0 14592016.138 -19860504.455 6630602.817 10 0 59571 24300.00000 0 13996923.257 -19040767.094 9642422.572 10 0 59571 25200.00000 0 13322428.585 -17849800.602 12467266.688 10 0 59571 26100.00000 0 12626836.521 -16299092.309 15050420.674 10 0 59571 27000.00000 0 11966394.843 -14413069.466 17341873.726 10 0 59571 27900.00000 0 11392796.857 -12228291.932 19297277.409 10 0 59571 28800.00000 0 10950892.204 -9792150.092 20878794.008 10 0 59571 29700.00000 0 10676701.842 -7161121.639 22055819.286 10 0 59571 30600.00000 0 10595819.845 -4398658.734 22805566.803 10 0 59571 31500.00000 0 10722268.448 -1572792.150 23113503.405 10 0 59571 32400.00000 0 11057854.011 1246449.730 22973628.281 10 0 59571 33300.00000 0 11592050.848 3989701.726 22388590.553 10 0 59571 34200.00000 0 12302418.178 6590893.786 21369643.131 10 0 59571 35100.00000 0 13155533.455 8989746.593 19936433.306 10 0 59571 36000.00000 0 14108404.033 11134028.725 18116633.318 10 0 59571 36900.00000 0 15110299.152 12981482.731 15945416.948 10 0 59571 37800.00000 0 16104926.636 14501340.818 13464790.972 10 0 59571 38700.00000 0 17032863.991 15675367.529 10722793.042 10 0 59571 39600.00000 0 17834142.437 16498385.942 7772570.351 10 0 59571 40500.00000 0 18450875.536 16978265.399 4671355.921 10 0 59571 41400.00000 0 18829821.538 17135371.088 1479361.633 10 0 59571 42300.00000 0 18924770.772 17001498.409 -1741390.669 10 0 59571 43200.00000 0 18698656.267 16618336.909 -4928277.281 10 0 59571 44100.00000 0 18125297.059 16035528.650 -8019295.956 10 0 59571 45000.00000 0 17190698.863 15308403.253 -10954279.833 10 0 59571 45900.00000 0 15893855.416 14495485.888 -13676077.423 10 0 59571 46800.00000 0 14247014.853 13655884.267 -16131674.715 10 0 59571 47700.00000 0 12275398.264 12846666.011 -18273236.480 10 0 59571 48600.00000 0 10016380.819 12120338.194 -20059045.716 10 0 59571 49500.00000 0 7518168.670 11522536.446 -21454322.316 10 0 59571 50400.00000 0 4838026.315 11090022.051 -22431904.554 10 0 59571 51300.00000 0 2040128.048 10849072.114 -22972779.993 10 0 59571 52200.00000 0 -806877.106 10814331.128 -23066455.482 10 0 59571 53100.00000 0 -3632485.413 10988172.420 -22711159.228 10 0 59571 54000.00000 0 -6367034.378 11360596.301 -21913871.295 10 0 59571 54900.00000 0 -8944362.463 11909668.820 -20690182.283 10 0 59571 55800.00000 0 -11304322.005 12602482.156 -19063983.296 10 0 59571 56700.00000 0 -13395041.219 13396595.493 -17066993.649 10 0 59571 57600.00000 0 -15174841.741 14241894.970 -14738135.819 10 0 59571 58500.00000 0 -16613732.738 15082793.511 -12122770.285 10 0 59571 59400.00000 0 -17694420.547 15860677.086 -9271805.562 10 0 59571 60300.00000 0 -18412793.242 16516493.525 -6240701.153 10 0 59571 61200.00000 0 -18777861.586 16993374.131 -3088383.458 10 0 59571 62100.00000 0 -18811160.794 17239177.035 123903.837 10 0 59571 63000.00000 0 -18545640.144 17208844.750 3333792.048 10 0 59571 63900.00000 0 -18024088.869 16866476.382 6478998.786 10 0 59571 64800.00000 0 -17297166.133 16187027.180 9498534.558 10 0 59571 65700.00000 0 -16421119.174 15157563.967 12333881.205 10 0 59571 66600.00000 0 -15455286.458 13778023.772 14930119.497 10 0 59571 67500.00000 0 -14459491.238 12061443.852 17236984.563 10 0 59571 68400.00000 0 -13491435.005 10033653.294 19209829.528 10 0 59571 69300.00000 0 -12604199.901 7732438.763 20810479.604 10 0 59571 70200.00000 0 -11843964.202 5206218.529 22007961.281 10 0 59571 71100.00000 0 -11248025.763 2512278.962 22779093.622 10 0 59571 72000.00000 0 -10843215.391 -285354.380 23108931.201 10 0 59571 72900.00000 0 -10644765.824 -3118324.251 22991050.899 10 0 59571 73800.00000 0 -10655683.163 -5916529.693 22427677.439 10 0 59571 74700.00000 0 -10866646.906 -8610788.846 21429645.236 10 0 59571 75600.00000 0 -11256442.969 -11135467.970 20016196.920 10 0 59571 76500.00000 0 -11792912.107 -13430969.132 18214621.617 10 0 59571 77400.00000 0 -12434374.777 -15445974.471 16059738.929 10 0 59571 78300.00000 0 -13131473.589 -17139354.634 13593237.286 10 0 59571 79200.00000 0 -13829356.884 -18481662.466 10862878.120 10 0 59571 80100.00000 0 -14470112.347 -19456149.723 7921580.077 10 0 59571 81000.00000 0 -14995348.606 -20059264.231 4826399.969 10 0 59571 81900.00000 0 -15348816.005 -20300606.390 1637429.489 10 0 59571 82800.00000 0 -15478955.520 -20202346.417 -1583371.113 10 0 59571 83700.00000 0 -15341267.259 -19798126.577 -4773379.696 10 0 59571 84600.00000 0 -14900397.123 -19131494.441 -7870535.345 10 0 59571 85500.00000 0 -14131851.863 -18253933.297 -10814553.302 99